| time (UTC) | temp F | wind direction | speed MPH | gust MPH | rain 1hr in | rain 24hr in | rain mn in | humidity % | barometer mb |
| 20260904131613 | 73 | 163 | 4.0 | 9.0 | 0.00 | 0.00 | 0.00 | 33 | 1005.1 |
| 20260904130056 | 73 | 188 | 6.0 | 12.0 | 0.00 | 0.00 | 0.00 | 33 | 1005.0 |
| 20260904124557 | 73 | 142 | 7.0 | 12.0 | 0.00 | 0.00 | 0.00 | 32 | 1004.8 |
| 20260904123104 | 73 | 121 | 5.0 | 10.0 | 0.00 | 0.00 | 0.00 | 33 | 1004.6 |
| 20260904121557 | 73 | 149 | 4.0 | 9.0 | 0.00 | 0.00 | 0.00 | 33 | 1004.6 |
| 20260904120057 | 73 | 178 | 8.0 | 12.0 | 0.00 | 0.00 | 0.00 | 33 | 1004.6 |
| 20260904114556 | 73 | 158 | 7.0 | 10.0 | 0.00 | 0.00 | 0.00 | 33 | 1004.5 |
| 20260904113100 | 74 | 219 | 5.0 | 10.0 | 0.00 | 0.00 | 0.00 | 32 | 1004.5 |
| 20260904111557 | 74 | 143 | 5.0 | 13.0 | 0.00 | 0.00 | 0.00 | 32 | 1004.4 |
| 20260904110057 | 74 | 178 | 6.0 | 12.0 | 0.00 | 0.00 | 0.00 | 32 | 1004.2 |
| 20260904104556 | 74 | 116 | 6.0 | 18.0 | 0.00 | 0.00 | 0.00 | 32 | 1004.1 |
| 20260904103056 | 74 | 139 | 7.0 | 12.0 | 0.00 | 0.00 | 0.00 | 31 | 1004.0 |
| 20260904101559 | 74 | 151 | 4.0 | 11.0 | 0.00 | 0.00 | 0.00 | 31 | 1003.9 |
| 20260904100105 | 74 | 189 | 6.0 | 12.0 | 0.00 | 0.00 | 0.00 | 30 | 1003.8 |
| 20260904094556 | 75 | 155 | 3.0 | 7.0 | 0.00 | 0.00 | 0.00 | 27 | 1003.9 |
| 20260904093059 | 75 | 161 | 3.0 | 8.0 | 0.00 | 0.00 | 0.00 | 27 | 1003.8 |
| 20260904091557 | 76 | 146 | 3.0 | 5.0 | 0.00 | 0.00 | 0.00 | 27 | 1003.8 |
| 20260904090057 | 76 | 136 | 3.0 | 9.0 | 0.00 | 0.00 | 0.00 | 27 | 1003.9 |
| 20260904084556 | 77 | 171 | 4.0 | 11.0 | 0.00 | 0.00 | 0.00 | 26 | 1003.9 |
| 20260904083055 | 77 | 167 | 4.0 | 9.0 | 0.00 | 0.00 | 0.00 | 25 | 1003.9 |
| 20260904081556 | 77 | 155 | 4.0 | 9.0 | 0.00 | 0.00 | 0.00 | 23 | 1003.8 |
| 20260904080057 | 78 | 156 | 3.0 | 9.0 | 0.00 | 0.00 | 0.00 | 22 | 1003.9 |
| 20260904074558 | 78 | 158 | 3.0 | 5.0 | 0.00 | 0.00 | 0.00 | 20 | 1003.9 |
| 20260904073100 | 79 | 132 | 5.0 | 8.0 | 0.00 | 0.00 | 0.00 | 18 | 1003.9 |
| 20260904071600 | 79 | 163 | 3.0 | 9.0 | 0.00 | 0.00 | 0.00 | 17 | 1003.8 |
| 20260904070100 | 80 | 176 | 4.0 | 10.0 | 0.00 | 0.00 | 0.00 | 15 | 1003.6 |
| 20260904070004 | 79 | 142 | 4.0 | 10.0 | 0.00 | 0.00 | 0.00 | 15 | 1003.6 |
| 20260904064620 | 79 | 182 | 4.0 | 7.0 | 0.00 | 0.00 | 0.00 | 15 | 1003.4 |
| 20260904063059 | 80 | 184 | 4.0 | 10.0 | 0.00 | 0.00 | 0.00 | 14 | 1003.4 |
| 20260904061559 | 81 | 144 | 3.0 | 7.0 | 0.00 | 0.00 | 0.00 | 14 | 1003.3 |
| 20260904060100 | 81 | 142 | 3.0 | 6.0 | 0.00 | 0.00 | 0.00 | 13 | 1003.2 |
| 20260904060004 | 81 | 147 | 3.0 | 7.0 | 0.00 | 0.00 | 0.00 | 13 | 1003.2 |
| 20260904054559 | 82 | 119 | 3.0 | 8.0 | 0.00 | 0.00 | 0.00 | 13 | 1003.2 |
| 20260904053103 | 81 | 146 | 3.0 | 7.0 | 0.00 | 0.00 | 0.00 | 13 | 1003.4 |
| 20260904051558 | 81 | 136 | 3.0 | 6.0 | 0.00 | 0.00 | 0.00 | 12 | 1003.5 |
| 20260904050133 | 81 | 155 | 3.0 | 7.0 | 0.00 | 0.00 | 0.00 | 12 | 1003.7 |
| 20260904044602 | 82 | 140 | 3.0 | 5.0 | 0.00 | 0.00 | 0.00 | 13 | 1003.8 |
| 20260904043103 | 82 | 146 | 3.0 | 6.0 | 0.00 | 0.00 | 0.00 | 13 | 1003.8 |
| 20260904041611 | 83 | 143 | 3.0 | 6.0 | 0.00 | 0.00 | 0.00 | 13 | 1003.7 |
| 20260904034608 | 84 | 144 | 4.0 | 7.0 | 0.00 | 0.00 | 0.00 | 13 | 1003.5 |
| 20260904033057 | 84 | 144 | 4.0 | 7.0 | 0.00 | 0.00 | 0.00 | 13 | 1003.3 |
| 20260904031558 | 85 | 148 | 4.0 | 6.0 | 0.00 | 0.00 | 0.00 | 13 | 1003.3 |
| 20260904030059 | 85 | 145 | 3.0 | 6.0 | 0.00 | 0.00 | 0.00 | 13 | 1003.1 |
| 20260904024558 | 86 | 137 | 2.0 | 7.0 | 0.00 | 0.00 | 0.00 | 13 | 1002.9 |
| 20260904023059 | 87 | 225 | 2.0 | 6.0 | 0.00 | 0.00 | 0.00 | 12 | 1002.8 |
| 20260904021558 | 88 | 169 | 3.0 | 8.0 | 0.00 | 0.00 | 0.00 | 12 | 1002.8 |
| 20260904020058 | 89 | 168 | 4.0 | 12.0 | 0.00 | 0.00 | 0.00 | 12 | 1002.7 |
| 20260904020001 | 89 | 186 | 2.0 | 12.0 | 0.00 | 0.00 | 0.00 | 12 | 1002.7 |
| 20260904014621 | 90 | 182 | 6.0 | 12.0 | 0.00 | 0.00 | 0.00 | 11 | 1002.6 |
| 20260904013059 | 91 | 164 | 5.0 | 14.0 | 0.00 | 0.00 | 0.00 | 11 | 1002.6 |
| 20260904011608 | 92 | 180 | 3.0 | 10.0 | 0.00 | 0.00 | 0.00 | 11 | 1002.6 |
| 20260904010059 | 93 | 188 | 5.0 | 12.0 | 0.00 | 0.00 | 0.00 | 11 | 1002.7 |
| 20260904004558 | 94 | 216 | 7.0 | 16.0 | 0.00 | 0.00 | 0.00 | 10 | 1002.7 |
| 20260904003102 | 94 | 167 | 4.0 | 13.0 | 0.00 | 0.00 | 0.00 | 10 | 1002.7 |
| 20260904001558 | 95 | 190 | 4.0 | 10.0 | 0.00 | 0.00 | 0.00 | 10 | 1002.8 |
| 20260903234558 | 95 | 242 | 9.0 | 15.0 | 0.00 | 0.00 | 0.00 | 10 | 1003.0 |
| 20260903233057 | 96 | 209 | 5.0 | 14.0 | 0.00 | 0.00 | 0.00 | 9 | 1003.0 |
| 20260903231611 | 96 | 216 | 6.0 | 12.0 | 0.00 | 0.00 | 0.00 | 10 | 1003.0 |
| 20260903230112 | 96 | 230 | 5.0 | 12.0 | 0.00 | 0.00 | 0.00 | 9 | 1003.4 |
| 20260903224558 | 96 | 155 | 6.0 | 17.0 | 0.00 | 0.00 | 0.00 | 9 | 1003.6 |
| 20260903223113 | 97 | 205 | 8.0 | 16.0 | 0.00 | 0.00 | 0.00 | 9 | 1003.8 |
| 20260903221558 | 97 | 188 | 9.0 | 20.0 | 0.00 | 0.00 | 0.00 | 9 | 1003.9 |
| 20260903220106 | 97 | 236 | 8.0 | 17.0 | 0.00 | 0.00 | 0.00 | 9 | 1003.9 |
| 20260903214558 | 97 | 171 | 5.0 | 13.0 | 0.00 | 0.00 | 0.00 | 9 | 1004.2 |
| 20260903213058 | 96 | 162 | 2.0 | 12.0 | 0.00 | 0.00 | 0.00 | 10 | 1004.3 |
| 20260903211614 | 97 | 202 | 6.0 | 16.0 | 0.00 | 0.00 | 0.00 | 10 | 1004.4 |
| 20260903210059 | 96 | 182 | 5.0 | 14.0 | 0.00 | 0.00 | 0.00 | 11 | 1004.6 |
| 20260903204603 | 96 | 138 | 8.0 | 18.0 | 0.00 | 0.00 | 0.00 | 10 | 1004.8 |
| 20260903203058 | 95 | 275 | 6.0 | 17.0 | 0.00 | 0.00 | 0.00 | 11 | 1004.9 |
| 20260903201559 | 95 | 221 | 8.0 | 16.0 | 0.00 | 0.00 | 0.00 | 11 | 1005.1 |
| 20260903200108 | 94 | 217 | 7.0 | 16.0 | 0.00 | 0.00 | 0.00 | 12 | 1005.4 |
| 20260903194557 | 93 | 190 | 8.0 | 17.0 | 0.00 | 0.00 | 0.00 | 12 | 1005.6 |
| 20260903193102 | 92 | 213 | 7.0 | 19.0 | 0.00 | 0.00 | 0.00 | 12 | 1005.8 |
| 20260903191604 | 92 | 185 | 8.0 | 14.0 | 0.00 | 0.00 | 0.00 | 12 | 1006.0 |
| 20260903190056 | 92 | 193 | 6.0 | 14.0 | 0.00 | 0.00 | 0.00 | 13 | 1006.3 |
| 20260903184603 | 90 | 229 | 7.0 | 16.0 | 0.00 | 0.00 | 0.00 | 12 | 1006.5 |
| 20260903183119 | 89 | 220 | 4.0 | 15.0 | 0.00 | 0.00 | 0.00 | 13 | 1006.8 |
| 20260903181625 | 88 | 246 | 8.0 | 16.0 | 0.00 | 0.00 | 0.00 | 13 | 1006.9 |
| 20260903180059 | 87 | 154 | 6.0 | 15.0 | 0.00 | 0.00 | 0.00 | 14 | 1007.0 |
| 20260903174600 | 86 | 159 | 8.0 | 16.0 | 0.00 | 0.00 | 0.00 | 14 | 1007.1 |
| 20260903173108 | 86 | 192 | 8.0 | 17.0 | 0.00 | 0.00 | 0.00 | 14 | 1007.2 |
| 20260903171602 | 85 | 135 | 8.0 | 17.0 | 0.00 | 0.00 | 0.00 | 15 | 1007.2 |
| 20260903170057 | 83 | 178 | 7.0 | 15.0 | 0.00 | 0.00 | 0.00 | 16 | 1007.2 |
| 20260903164558 | 83 | 183 | 9.0 | 15.0 | 0.00 | 0.00 | 0.00 | 16 | 1007.1 |
| 20260903163056 | 82 | 180 | 7.0 | 13.0 | 0.00 | 0.00 | 0.00 | 17 | 1007.1 |
| 20260903161615 | 81 | 115 | 7.0 | 15.0 | 0.00 | 0.00 | 0.00 | 17 | 1007.0 |
| 20260903160057 | 81 | 154 | 7.0 | 13.0 | 0.00 | 0.00 | 0.00 | 18 | 1007.1 |
| 20260903154557 | 80 | 218 | 7.0 | 12.0 | 0.00 | 0.00 | 0.00 | 18 | 1007.1 |
| 20260903153058 | 79 | 190 | 6.0 | 12.0 | 0.00 | 0.00 | 0.00 | 18 | 1007.1 |
| 20260903151559 | 78 | 164 | 6.0 | 15.0 | 0.00 | 0.00 | 0.00 | 19 | 1007.2 |
| 20260903150057 | 77 | 203 | 6.0 | 11.0 | 0.00 | 0.00 | 0.00 | 19 | 1007.2 |
| 20260903144559 | 76 | 208 | 4.0 | 9.0 | 0.00 | 0.00 | 0.00 | 20 | 1007.1 |
| 20260903143057 | 75 | 194 | 3.0 | 9.0 | 0.00 | 0.00 | 0.00 | 21 | 1007.1 |
| 20260903141557 | 74 | 208 | 4.0 | 8.0 | 0.00 | 0.00 | 0.00 | 23 | 1007.0 |
| 20260903140057 | 73 | 142 | 4.0 | 10.0 | 0.00 | 0.00 | 0.00 | 23 | 1006.8 |
| 20260903134607 | 72 | 146 | 3.0 | 7.0 | 0.00 | 0.00 | 0.00 | 23 | 1006.7 |
| 20260903133057 | 72 | 165 | 1.0 | 6.0 | 0.00 | 0.00 | 0.00 | 22 | 1006.6 |